Weather History for Safford, AZ

Change the Weather History Date:

Monday, August 19, 2013

  Actual Average Record
Temperature  
Mean Temperature 88 °F -  
Max Temperature 102 °F 94 °F 106 °F (1992)
Min Temperature 75 °F 65 °F 54 °F (1949)
Cooling Degree Days 24    
Growing Degree Days 38 (Base 50)    
Moisture  
Dew Point 48 °F    
Average Humidity 27    
Maximum Humidity 41    
Minimum Humidity 13    
Precipitation  
Precipitation 0.00 in - - ()
Sea Level Pressure  
Sea Level Pressure 29.81 in    
Wind  
Wind Speed 6 mph (WNW)    
Max Wind Speed 17 mph    
Max Gust Speed 21 mph    
Visibility 10 miles    
Events      
Averages and records for this station are not official NWS values.
T = Trace of Precipitation, MM = Missing Value Source: NWS Daily Summary

Daily Weather History Graph

Daily Weather History Graph

Search for Another Location

Airport:

Trip Planner

Search our weather history database for the weather conditions in past years. The results will help you decide how hot, cold, wet, or windy it might be!

Date:

Astronomy

Aug. 19, 2013 Rise Set
Actual Time 5:44 AM MST 6:58 PM MST
Civil Twilight 5:18 AM MST 7:24 PM MST
Nautical Twilight 4:48 AM MST 7:55 PM MST
Astronomical Twilight 4:16 AM MST 8:26 PM MST
Moon 5:52 PM MST 4:09 AM MST
Length of Visible Light 14h 05m
Length of Day
13h 14m
Waxing Gibbous, 98% of the Moon is Illuminated
Aug 19
Waxing Gibbous
Aug 20
Full
Aug 28
Last Quarter
Sep 5
New
Sep 12
First Quarter

Hourly Weather History & Observations

Time (MST) Temp. Dew Point Humidity Pressure Visibility Wind Dir Wind Speed Gust Speed Precip Events Conditions
12:51 AM 78.1 °F 50.0 °F 37% 29.85 in 10.0 mi WNW 8.1 mph - N/A   Clear
1:51 AM 77.0 °F 50.0 °F 39% 29.83 in 10.0 mi WNW 6.9 mph - N/A   Clear
2:51 AM 77.0 °F 50.0 °F 39% 29.83 in 10.0 mi NNW 3.5 mph - N/A   Clear
3:51 AM 75.0 °F 50.0 °F 41% 29.85 in 10.0 mi NNE 3.5 mph - N/A   Clear
4:51 AM 75.9 °F 48.9 °F 38% 29.86 in 10.0 mi Calm Calm - N/A   Clear
5:51 AM 75.0 °F 48.9 °F 40% 29.87 in 10.0 mi Calm Calm - N/A   Clear
6:51 AM 77.0 °F 51.1 °F 40% 29.88 in 10.0 mi Calm Calm - N/A   Clear
7:51 AM 82.0 °F 50.0 °F 33% 29.88 in 10.0 mi Calm Calm - N/A   Clear
8:51 AM 84.9 °F 52.0 °F 32% 29.88 in 10.0 mi South 5.8 mph - N/A   Clear
9:51 AM 90.0 °F 51.1 °F 26% 29.87 in 10.0 mi Calm Calm - N/A   Clear
10:51 AM 93.0 °F 50.0 °F 23% 29.86 in 10.0 mi Variable 3.5 mph - N/A   Clear
11:51 AM 97.0 °F 48.9 °F 19% 29.83 in 10.0 mi NW 6.9 mph - N/A   Clear
12:51 PM 100.0 °F 46.0 °F 16% 29.80 in 10.0 mi Variable 6.9 mph - N/A   Clear
1:51 PM 102.0 °F 43.0 °F 13% 29.77 in 10.0 mi WNW 9.2 mph 17.3 mph N/A   Clear
2:51 PM 102.9 °F 42.1 °F 13% 29.73 in 10.0 mi WNW 12.7 mph - N/A   Clear
3:51 PM 102.9 °F 43.0 °F 13% 29.72 in 10.0 mi West 16.1 mph 20.7 mph N/A   Clear
4:51 PM 100.0 °F 46.0 °F 16% 29.72 in 10.0 mi WNW 10.4 mph - N/A   Clear
5:51 PM 99.0 °F 44.1 °F 15% 29.71 in 10.0 mi WNW 6.9 mph - N/A   Clear
6:51 PM 95.0 °F 46.9 °F 19% 29.73 in 10.0 mi SE 17.3 mph - N/A   Clear
7:51 PM 91.0 °F 48.9 °F 23% 29.75 in 10.0 mi East 5.8 mph - N/A   Clear
8:51 PM 91.9 °F 46.9 °F 21% 29.78 in 10.0 mi ENE 5.8 mph - N/A   Partly Cloudy
9:51 PM 89.1 °F 48.9 °F 25% 29.80 in 10.0 mi SSE 5.8 mph - N/A   Partly Cloudy
10:51 PM 87.1 °F 48.9 °F 27% 29.80 in 10.0 mi SSE 5.8 mph - N/A   Clear
11:51 PM 84.0 °F 48.9 °F 29% 29.80 in 10.0 mi ENE 4.6 mph - N/A   Clear